{"data":{"norad_id":49383,"epoch":"2026-09-20T23:23:44.761632Z","epoch_age_seconds":63135,"freshness":"FRESH","line1":"1 49383U 21099A   26263.97482363  .00000406  00000+0  86211-4 0  9990","line2":"2 49383  98.2606  37.9846 0000082  74.1766 285.9446 14.64320093260387","mean_motion":14.64320093,"eccentricity":8.2e-6,"inclination_deg":98.2606,"raan_deg":37.9846,"arg_perigee_deg":74.1766,"mean_anomaly_deg":285.9446,"bstar":8.6211e-5,"rev_number":26038,"period_min":98.339154593571,"perigee_km":679.20123603442,"apogee_km":679.31697733057,"semimajor_km":7057.3961066825,"source":"CELESTRAK","updated_at":"2026-09-21T09:00:08.073379Z"}}